Theta_e
339 339 339 340 340 339 339 339 339 339 339 339 339 340 340 340 341 342 342 341 340 340 339 339 338 336 335 334 334 334 333 333 333 333 332 331 331 330 328 328 327 326 325 324 325 325 324 322 318 314 313 312 312 310 310 310 308 308 309 308 308 308 308
340 340 340 340 340 339 340 340 339 340 339 339 339 340 340 340 341 342 342 340 340 340 339 339 338 337 335 334 334 334 334 334 333 332 331 331 331 330 328 327 326 324 324 324 324 324 324 323 320 317 314 314 314 312 311 311 310 309 309 309 308 308 308
340 340 340 341 340 340 340 340 340 340 339 339 339 339 340 340 341 342 341 340 340 340 339 339 338 337 336 335 335 334 334 334 333 332 331 330 330 330 328 327 325 325 325 324 324 324 324 323 321 319 316 316 316 314 312 312 310 309 309 309 308 308 308
341 341 341 341 341 341 340 341 340 340 339 339 339 339 339 340 341 342 341 340 340 340 339 338 339 338 336 335 335 333 333 333 332 331 331 331 330 330 329 327 326 326 326 325 325 324 324 323 322 320 318 316 315 314 314 312 310 310 310 310 309 308 308
342 341 342 342 341 341 341 341 341 340 339 339 339 339 339 339 341 342 341 340 340 339 339 338 337 337 336 335 334 333 332 332 332 331 331 331 330 329 329 328 327 327 326 326 325 324 324 324 322 321 320 317 315 315 315 313 311 310 310 309 309 308 308
342 341 341 342 341 340 340 341 340 340 339 340 340 339 339 339 340 342 341 340 340 339 338 337 336 336 334 334 333 332 332 331 331 331 331 331 330 330 329 328 328 327 326 325 325 324 324 324 323 322 321 319 316 315 314 313 311 310 310 309 308 308 308
342 342 341 342 341 341 341 341 340 340 339 340 340 339 339 339 339 341 341 340 340 339 338 336 336 334 332 333 333 331 332 332 331 331 331 330 330 329 329 329 328 327 326 325 325 324 324 325 324 322 322 319 318 317 314 312 311 310 310 308 308 308 307
342 342 342 342 342 341 341 341 339 340 340 339 339 339 339 338 338 340 341 340 340 339 338 336 335 332 331 332 332 331 331 332 331 331 330 329 329 329 328 328 327 326 326 325 324 325 325 325 323 322 321 320 318 318 315 312 311 310 310 309 308 307 306
343 342 342 342 342 342 341 340 339 340 340 339 339 339 338 337 338 340 340 340 339 338 337 336 334 332 331 331 331 331 331 331 330 330 329 328 328 328 328 328 327 325 325 324 324 325 324 324 322 321 321 320 318 317 315 313 312 311 310 309 308 307 307
342 342 342 342 342 342 341 340 339 339 339 339 339 339 338 338 339 340 340 339 339 337 336 335 334 333 331 330 330 331 331 329 328 328 328 327 327 327 327 327 327 325 324 324 324 324 324 323 321 320 320 319 318 316 315 314 314 312 311 309 309 307 307
343 342 342 342 342 342 341 340 340 340 340 339 339 339 338 339 340 340 339 338 337 336 335 334 333 332 331 330 329 330 329 327 326 327 327 326 326 326 326 326 325 324 324 324 323 323 322 321 319 318 317 317 316 315 315 315 315 314 312 310 309 308 307
343 342 342 343 342 342 341 340 340 340 340 339 338 338 338 339 340 339 338 338 336 335 334 332 331 331 330 329 329 329 328 326 325 326 325 325 325 324 324 324 323 323 323 322 320 319 318 317 316 315 315 314 314 315 315 315 314 314 313 311 310 308 307
343 342 343 343 343 342 341 341 340 339 340 339 338 338 338 339 339 338 337 337 335 334 333 331 330 329 329 328 328 327 326 325 325 325 324 323 323 322 322 321 321 321 319 317 316 315 314 314 314 313 313 313 313 314 314 314 313 314 313 312 311 309 307
343 342 342 343 343 342 341 341 340 339 339 338 338 338 339 338 338 337 337 336 335 333 332 331 329 328 328 328 328 327 326 324 324 324 323 322 320 319 319 318 318 317 316 314 314 313 312 312 312 311 312 311 312 313 313 312 312 314 314 312 311 309 306
342 342 342 343 342 342 341 340 340 339 338 338 338 338 338 338 338 337 336 335 334 333 331 330 329 329 329 328 327 326 324 323 323 322 321 320 318 318 317 316 316 315 314 313 313 312 311 310 309 309 309 309 309 311 311 310 310 312 314 312 310 309 307
342 342 342 342 341 342 341 340 340 339 338 337 338 338 338 338 337 336 336 335 334 332 331 330 329 329 329 328 326 324 323 322 321 320 319 318 317 317 316 315 315 314 313 313 312 310 309 308 307 308 308 307 308 310 310 310 310 310 313 312 310 308 307
342 341 342 342 341 341 341 341 340 339 338 337 338 338 338 337 336 335 335 334 333 332 331 330 329 328 328 327 326 324 322 321 320 319 318 317 316 316 315 315 315 313 312 312 311 309 308 307 306 307 306 306 307 309 309 309 309 309 311 312 310 308 308
342 342 342 341 340 341 341 340 339 338 338 338 338 338 337 336 335 335 335 334 333 331 330 329 328 327 326 325 324 323 321 320 318 317 316 316 316 314 314 315 314 312 311 311 310 309 308 307 306 306 306 305 306 307 308 308 309 309 309 309 309 308 307
342 342 342 341 340 340 340 339 338 338 338 338 338 337 336 335 335 335 334 334 333 331 330 329 328 327 325 324 323 321 319 317 316 316 316 316 315 314 314 314 313 311 311 311 310 309 308 307 307 306 306 306 306 307 308 308 308 307 307 307 308 308 307
342 342 341 340 339 339 340 338 338 338 338 338 338 337 336 335 334 334 334 334 332 331 330 328 327 326 324 323 321 319 317 316 315 316 315 314 314 314 313 313 312 311 310 311 310 309 309 308 307 307 307 307 307 308 307 305 305 306 307 307 308 307 306
342 341 341 340 339 339 339 338 338 338 338 338 337 337 336 335 334 334 334 333 332 330 328 327 326 325 323 322 320 318 316 315 315 315 314 313 313 313 312 312 311 310 309 310 309 309 308 308 308 307 307 308 307 306 305 304 305 306 306 306 306 305 305
341 341 340 339 339 339 339 338 338 338 338 338 337 336 335 334 333 333 333 332 330 328 328 327 326 324 323 321 319 317 316 315 314 314 313 313 312 312 311 311 310 310 309 309 308 307 307 307 307 308 308 308 306 304 304 305 306 305 305 305 305 305 304
341 341 340 339 338 339 338 338 338 337 337 337 336 335 334 333 333 332 331 330 328 327 327 326 325 324 322 320 318 316 315 314 314 313 312 312 312 311 310 310 310 308 306 304 303 303 303 303 303 307 308 306 305 305 305 306 305 305 305 305 304 304 303
340 340 339 338 338 338 338 337 337 337 337 337 335 334 333 332 332 331 330 328 327 327 326 325 326 325 322 319 317 316 315 314 313 312 312 312 312 311 310 310 309 305 302 301 301 300 301 301 301 303 303 301 302 304 306 306 306 305 304 304 303 304 303
340 339 338 338 338 338 338 337 337 337 336 336 334 333 332 332 331 330 328 327 327 327 326 326 328 326 321 318 316 316 316 314 313 313 312 312 312 311 310 310 309 306 303 303 304 301 301 301 301 301 301 300 299 300 302 304 305 305 304 303 303 303 303
339 338 338 338 337 337 337 337 337 336 336 335 333 332 332 331 330 329 328 327 327 326 326 328 328 324 321 318 315 315 316 315 314 313 313 312 311 311 310 309 309 308 306 305 305 304 302 301 301 300 300 301 299 299 299 300 301 303 304 304 303 302 302
339 338 338 337 337 337 336 336 336 336 335 334 333 332 331 330 328 328 327 326 326 326 326 329 328 323 320 317 313 313 316 315 314 313 312 312 311 311 310 309 309 310 308 306 306 306 305 303 303 302 302 302 302 300 299 297 296 297 299 302 302 301 302
338 338 337 336 336 336 336 336 336 336 335 334 333 332 330 329 328 328 327 326 325 325 326 328 327 322 320 317 313 312 315 315 313 313 312 312 311 310 310 309 309 310 310 308 307 307 307 306 306 305 305 305 304 304 301 298 296 296 297 298 300 302 305
338 338 336 336 336 335 335 335 335 335 335 334 334 332 330 329 329 328 326 325 325 325 325 327 326 322 320 317 312 312 315 315 313 313 312 311 311 310 310 309 310 310 310 309 307 305 305 307 307 307 306 305 304 304 304 300 296 296 297 296 298 302 305
337 337 336 335 335 335 335 335 335 334 334 334 333 332 329 328 328 327 325 324 324 325 325 326 326 322 319 315 312 312 314 314 313 313 313 311 311 310 310 310 310 309 308 308 306 303 302 304 306 306 306 305 304 303 304 301 296 294 295 295 297 300 302
337 336 335 335 335 334 334 335 334 333 333 333 332 330 328 327 326 325 325 325 325 324 325 327 326 322 318 315 312 312 314 314 313 313 313 312 311 310 310 310 309 308 308 308 305 302 301 302 305 306 305 305 305 303 302 302 300 297 296 297 299 300 301
336 336 335 335 334 334 334 334 332 331 332 332 331 328 327 326 325 324 324 326 326 324 325 327 325 320 318 315 312 313 314 313 313 313 312 311 310 310 310 308 306 307 309 308 304 302 302 302 304 306 305 304 304 303 301 303 303 301 300 301 302 302 303
336 335 335 334 334 333 333 332 331 331 330 330 328 327 326 326 325 324 324 325 325 324 325 327 324 320 318 315 312 313 314 313 314 313 312 311 310 310 310 308 305 306 307 307 304 303 303 303 304 305 305 304 303 303 303 303 303 302 302 303 304 305 306
336 335 335 334 333 332 331 330 330 330 330 329 328 327 326 325 324 323 324 325 324 323 324 326 324 320 318 315 312 312 314 314 314 313 311 311 310 310 310 309 306 305 305 305 304 303 303 303 303 304 305 304 303 303 303 303 302 300 301 302 303 304 304
336 335 334 333 332 332 331 330 330 330 329 329 328 326 325 324 323 323 323 323 323 323 323 325 324 321 318 316 312 311 314 314 313 312 311 311 311 310 309 309 308 305 304 305 304 304 304 303 303 303 303 303 301 300 300 301 301 300 301 302 303 303 302
335 335 334 333 332 332 331 330 330 329 329 328 327 326 325 324 323 322 322 321 322 321 321 322 323 322 319 316 311 310 313 313 312 312 312 311 311 310 309 309 309 306 304 305 304 304 304 304 303 303 302 301 299 296 296 299 300 301 302 303 304 304 303
335 334 333 332 332 332 331 330 329 329 330 329 328 327 326 324 323 322 321 320 320 320 319 320 322 322 319 316 311 309 311 312 311 311 312 312 311 311 310 310 308 306 304 304 305 304 304 304 303 303 303 301 298 294 295 298 300 301 303 304 305 305 305
Wind_Speed
23 22 22 22 22 22 21 22 22 21 21 20 19 18 17 16 14 14 14 14 14 15 15 14 16 18 18 17 17 17 16 15 15 14 13 14 14 14 13 11 9 7 6 7 8 6 4 4 8 11 12 13 13 13 12 10 11 11 10 9 8 7 7
23 22 21 22 22 22 22 22 22 22 22 21 19 18 17 16 16 15 15 15 15 15 14 14 14 17 18 17 16 17 15 14 15 14 13 13 14 13 13 12 10 7 8 9 9 9 8 6 4 8 11 13 12 13 14 11 11 11 11 10 9 8 7
23 23 22 23 23 23 23 24 23 23 22 21 20 19 18 17 16 15 15 15 15 14 14 14 14 16 17 17 17 18 17 15 14 14 14 13 14 13 12 12 11 9 10 10 9 10 9 8 5 5 10 13 11 13 15 14 13 12 11 11 10 9 8
25 24 23 24 25 24 25 25 24 23 22 22 21 19 18 19 17 16 16 15 14 15 14 15 16 16 17 17 17 18 19 17 15 15 15 14 14 13 12 12 12 12 12 11 9 10 9 8 6 5 8 12 12 12 15 15 14 12 12 12 11 10 9
26 26 25 25 25 25 25 25 24 24 23 22 21 19 19 19 18 16 16 15 15 15 16 18 21 18 16 17 18 19 19 19 17 15 15 15 14 14 13 13 13 14 14 13 11 10 9 8 7 6 7 9 10 10 12 13 13 13 12 12 11 10 9
28 27 26 25 25 25 25 25 26 26 25 23 22 21 20 20 19 17 17 17 16 16 18 22 23 20 17 17 18 19 18 17 17 16 15 15 14 16 15 14 15 16 15 14 12 11 10 9 8 7 7 7 7 7 9 11 12 12 12 12 11 10 10
29 27 26 26 26 25 25 27 28 28 26 24 23 22 21 21 20 17 17 18 16 16 19 22 22 21 20 18 18 19 17 15 16 15 15 15 15 16 16 15 15 15 15 14 13 12 11 9 9 8 7 5 6 7 8 10 12 11 11 11 11 10 9
29 28 27 26 26 26 25 27 29 27 25 24 23 22 22 22 21 18 18 18 16 17 19 19 21 23 22 18 17 19 17 15 15 14 13 14 14 14 16 16 15 14 15 14 13 13 11 10 9 9 8 6 5 7 7 9 11 12 11 10 11 11 9
30 29 28 26 27 28 26 27 29 26 23 23 22 21 22 22 20 18 18 18 17 18 19 18 20 24 25 19 15 16 16 14 14 13 12 12 12 13 14 15 15 15 15 15 14 13 11 10 9 9 10 9 7 5 6 7 8 10 12 11 10 10 10
31 31 29 27 28 28 26 26 27 25 22 21 20 21 21 20 20 19 18 17 18 18 19 20 20 23 25 21 15 14 15 14 13 12 11 11 12 12 12 13 14 14 13 14 13 11 10 10 9 9 10 11 10 6 5 6 6 9 11 12 10 9 11
31 31 29 27 27 27 26 26 25 24 23 21 19 20 21 21 20 20 18 18 18 18 20 22 21 23 22 18 15 13 12 13 12 10 11 12 11 11 11 11 12 12 11 10 10 10 9 9 10 10 10 10 11 10 7 5 5 8 11 11 10 8 10
31 31 29 28 28 27 26 26 25 24 23 22 22 22 23 21 20 20 19 18 19 19 21 22 21 21 20 16 15 13 12 13 12 10 11 11 11 11 10 10 11 10 9 8 8 8 9 9 9 10 10 10 11 11 10 8 5 6 9 10 10 8 9
33 32 31 30 28 27 27 26 26 25 24 24 24 23 23 22 20 21 20 19 19 20 22 22 20 19 18 17 16 14 14 14 13 11 11 11 10 10 10 10 10 10 8 8 8 8 8 8 8 9 9 9 10 9 10 9 7 4 6 7 9 8 9
34 33 32 30 29 28 27 27 26 26 25 25 24 22 23 22 21 22 20 19 19 19 21 22 20 18 17 16 15 14 13 13 13 12 11 11 10 10 10 10 10 9 9 8 8 7 7 8 8 8 8 8 9 8 8 10 9 5 5 6 8 9 9
36 34 31 31 31 30 28 28 26 26 26 25 23 23 23 22 21 22 21 20 19 19 20 20 20 18 16 15 14 13 13 12 12 12 11 11 11 10 10 11 10 10 9 8 7 7 7 7 7 7 8 7 8 7 8 9 10 8 6 7 9 9 9
36 34 32 33 35 32 29 28 27 26 27 25 23 24 23 22 21 21 21 21 20 20 19 19 19 18 16 15 14 13 12 12 12 12 11 11 11 11 11 11 10 10 9 8 8 7 6 7 6 6 7 7 6 6 7 8 9 9 7 7 8 9 9
36 36 35 35 36 34 30 28 28 28 26 24 23 23 22 22 23 22 21 21 21 20 20 19 18 18 16 15 14 13 13 13 13 12 12 12 12 12 12 12 11 10 10 9 9 8 7 7 7 7 7 6 6 6 6 8 9 8 6 6 8 9 8
36 37 36 35 36 35 32 30 29 29 27 24 24 23 22 22 23 22 22 22 21 21 20 19 18 17 16 15 14 13 13 13 13 12 12 12 12 12 12 12 11 11 11 11 10 9 9 9 8 7 7 6 6 6 5 6 7 5 5 7 8 8 7
36 37 37 36 37 36 34 33 31 28 27 25 23 23 23 22 22 23 22 22 22 21 20 19 18 17 16 15 14 14 13 13 13 12 12 12 12 12 12 12 12 12 12 12 11 10 10 10 8 7 6 5 5 5 5 4 4 5 7 8 7 6 7
36 38 39 38 38 37 35 32 29 27 27 26 23 23 23 22 23 23 23 23 23 21 20 19 18 17 16 16 15 15 14 14 13 13 13 13 12 13 13 12 13 13 13 12 12 11 11 10 8 6 6 4 4 4 4 3 4 6 7 7 6 6 6
36 37 39 39 38 37 33 30 28 27 26 25 24 24 23 22 23 23 23 24 23 21 20 19 18 18 17 16 16 16 16 15 14 13 13 13 13 13 13 13 13 13 13 13 12 11 11 9 8 7 6 4 4 4 2 3 5 6 7 6 6 5 5
34 36 38 40 39 36 32 29 28 27 26 25 24 23 23 23 23 22 23 24 22 20 20 19 18 19 18 17 17 16 16 16 15 15 14 14 14 14 14 13 12 13 14 14 14 13 12 11 8 6 6 5 4 3 2 4 5 6 6 6 6 5 5
35 37 40 41 39 36 32 29 27 27 26 24 23 23 23 22 22 23 23 22 21 20 20 19 20 22 20 19 18 17 16 16 15 15 15 15 14 14 14 13 13 15 16 16 15 14 13 11 9 8 7 7 5 3 4 5 6 6 6 6 6 6 6
37 40 41 40 38 35 33 29 27 27 26 24 24 23 23 22 22 23 22 22 22 23 21 21 23 24 23 21 19 17 17 16 16 15 16 16 15 15 14 13 13 15 15 14 14 14 12 11 10 10 9 7 6 6 5 5 5 6 6 6 5 5 6
38 39 39 39 37 34 32 29 28 28 27 25 24 23 24 23 22 22 21 22 24 25 24 24 25 24 23 22 20 18 16 16 16 16 16 16 15 15 14 13 12 13 14 14 13 13 14 12 11 11 10 7 7 8 9 8 6 5 5 6 5 4 5
39 36 37 38 37 34 33 30 28 28 27 26 24 23 24 23 22 22 21 22 24 25 25 26 26 24 22 22 22 19 15 16 16 15 16 15 15 15 14 14 13 12 13 15 13 12 13 13 12 11 10 8 8 9 10 11 10 8 5 4 5 5 5
39 35 36 38 37 35 33 30 28 28 27 25 23 23 24 24 24 25 24 22 23 25 27 28 27 25 23 23 24 19 14 15 15 14 15 15 14 15 15 14 14 12 13 15 14 12 12 12 12 11 10 8 9 10 10 11 12 12 10 8 6 6 6
37 35 36 37 36 34 31 28 28 28 26 24 22 22 23 25 28 30 29 26 23 23 26 28 26 25 24 24 24 20 14 14 15 13 14 15 14 14 14 14 14 13 13 14 14 14 13 12 12 11 9 9 8 8 9 10 11 12 12 12 10 6 5
35 35 35 37 36 32 29 28 28 27 25 23 22 21 22 26 32 34 33 29 24 21 24 27 26 26 25 24 25 20 14 14 15 13 14 15 14 14 14 14 14 13 13 14 15 16 15 13 11 10 9 9 8 8 8 10 12 13 13 13 13 10 8
35 34 32 33 33 30 28 28 27 25 24 24 24 24 23 24 29 32 32 30 24 19 22 26 26 27 26 26 26 21 15 14 15 14 14 15 14 14 14 14 14 13 13 14 16 17 16 14 11 9 9 9 9 9 9 10 13 14 13 13 13 12 12
33 31 28 29 30 28 27 26 25 25 25 24 24 24 23 22 24 27 31 32 28 23 24 27 28 28 28 28 27 22 16 16 16 15 15 15 14 14 14 16 16 13 13 16 16 15 15 14 11 9 9 10 10 11 11 10 11 13 13 13 13 13 13
30 27 26 28 28 27 26 26 25 24 23 24 24 23 22 23 23 25 30 34 32 28 28 29 29 29 29 29 29 22 17 17 17 16 16 16 15 14 14 17 19 15 14 16 15 14 15 15 12 10 10 11 11 12 12 11 11 11 12 12 12 12 12
29 28 26 26 27 26 25 24 24 24 23 23 22 21 23 23 21 23 29 33 32 29 28 30 31 30 30 31 31 24 18 18 18 17 17 16 15 15 14 16 20 20 18 17 15 14 15 15 13 11 10 11 12 12 11 11 11 11 10 10 10 10 9
32 31 27 26 27 27 24 24 27 28 25 21 19 22 25 22 17 21 29 33 31 26 26 31 34 32 30 32 32 26 18 16 18 17 16 16 16 16 16 15 19 23 22 19 16 15 15 16 14 11 10 11 11 11 10 10 10 11 10 9 10 9 9
35 34 30 30 31 28 24 26 31 30 24 21 21 25 26 20 18 24 29 30 29 26 26 32 34 32 31 32 33 29 19 15 17 17 16 17 16 16 17 15 17 21 22 20 18 16 15 16 15 12 11 12 12 13 11 9 8 10 10 10 10 10 10
36 35 33 35 34 27 23 26 30 28 24 22 22 24 25 21 21 27 28 26 24 22 24 30 32 32 32 32 34 32 22 17 19 18 15 16 16 15 15 15 15 18 20 19 18 17 15 16 16 13 12 12 13 14 12 9 8 9 9 10 10 10 9
37 36 35 37 35 28 24 27 29 27 25 25 23 23 23 21 22 25 26 25 21 17 21 29 32 32 33 32 35 34 25 20 22 19 14 14 15 13 14 15 15 16 16 15 16 15 15 16 15 13 11 11 11 12 13 11 10 10 10 11 11 11 10
Wind_Direction
192 191 192 193 193 193 192 190 189 193 196 200 201 198 196 196 195 194 196 197 198 204 204 201 201 202 205 205 205 209 209 208 207 212 212 197 200 212 212 219 225 230 229 230 249 258 252 222 193 199 207 204 206 209 212 215 209 205 203 206 211 208 206
191 188 189 191 191 192 191 189 190 193 195 199 201 197 195 195 196 194 195 198 199 202 204 204 205 206 207 205 205 207 207 210 212 218 222 210 212 216 206 208 216 220 229 233 237 242 256 261 204 185 191 195 204 211 212 214 212 210 207 209 216 213 210
190 187 187 189 190 191 190 189 191 193 194 196 200 198 195 196 196 192 194 198 198 200 203 204 208 209 207 205 207 208 206 209 212 218 224 221 224 226 209 201 204 211 226 229 227 231 240 251 250 213 189 188 201 208 206 210 212 213 212 209 212 215 215
190 187 186 188 189 189 190 189 190 192 193 195 197 198 198 197 195 191 194 196 195 201 202 205 210 206 205 208 210 212 213 213 214 218 225 227 229 228 214 207 210 216 228 233 231 230 232 234 243 246 208 197 207 207 200 205 210 213 213 207 211 218 215
192 188 187 189 189 189 190 189 189 192 193 194 197 198 199 198 195 192 193 193 195 198 199 209 213 205 202 209 211 216 219 219 220 221 225 228 230 230 223 220 224 227 232 237 240 236 236 236 235 246 231 208 213 208 189 194 205 211 212 207 213 217 210
194 192 190 190 188 188 190 189 190 193 192 193 195 197 199 199 197 193 191 193 196 197 202 214 216 210 209 211 213 218 220 221 224 224 227 229 230 233 234 230 229 231 233 235 241 242 239 240 237 244 240 212 214 209 177 188 207 208 208 210 213 213 209
194 194 193 192 188 188 192 193 193 194 193 194 195 198 200 200 199 196 193 194 195 197 207 216 218 217 217 216 216 219 219 223 226 225 227 232 234 234 235 234 229 229 233 234 238 240 237 235 233 239 237 210 218 221 193 198 208 202 204 209 210 210 208
193 193 195 196 193 192 193 194 196 196 194 195 196 198 200 201 200 197 195 193 191 195 205 212 213 215 217 217 217 219 222 224 223 222 224 227 232 231 229 230 229 228 232 235 236 236 236 234 232 235 232 214 218 223 212 213 210 204 208 204 203 210 206
190 193 195 198 198 195 192 194 198 197 195 195 196 198 200 201 198 194 194 193 190 195 203 205 207 213 217 214 213 216 218 218 217 218 218 218 223 227 224 224 226 228 231 233 235 235 235 235 232 231 228 223 227 223 214 220 217 213 210 197 199 208 204
190 193 195 197 200 195 191 196 199 198 197 196 194 195 199 198 194 191 191 191 191 195 202 206 208 214 217 213 209 211 212 216 219 216 215 215 216 220 221 221 223 229 232 231 232 233 231 232 232 231 227 227 236 239 227 222 219 218 206 195 204 207 199
189 193 195 197 197 191 189 196 198 197 196 194 191 194 198 194 191 192 190 189 192 196 202 208 210 212 216 214 210 208 210 217 218 213 213 215 213 214 216 218 222 227 227 224 227 227 226 228 228 229 232 232 237 244 250 249 228 212 199 197 213 210 196
188 192 195 195 193 189 189 195 198 195 192 191 193 196 197 192 189 192 193 190 191 195 202 205 205 207 212 215 211 207 211 214 212 211 213 210 208 210 210 212 217 219 217 214 217 217 217 220 223 225 232 234 238 243 249 261 253 200 187 201 215 209 199
189 192 196 195 191 189 191 194 195 193 189 191 195 197 196 191 188 190 194 193 191 193 200 202 200 197 198 201 203 204 208 208 206 208 210 207 208 209 207 209 210 208 206 204 206 206 206 212 218 224 232 232 234 238 237 250 257 201 173 199 208 203 204
190 192 196 195 191 190 191 193 194 193 191 192 194 195 194 189 187 189 193 195 194 194 198 198 196 192 190 194 197 198 201 202 204 206 204 203 206 204 202 203 201 196 194 195 196 199 204 208 214 220 227 228 227 227 225 234 245 220 171 185 202 204 206
191 192 194 194 193 191 192 194 193 192 193 194 194 194 192 187 185 188 191 194 194 195 196 194 193 193 192 193 193 193 197 199 201 202 199 199 198 194 193 195 190 183 184 189 194 199 202 203 207 209 211 217 219 220 219 225 237 233 199 188 203 208 205
190 191 193 195 195 193 192 192 192 192 193 194 194 194 191 186 183 183 187 192 191 191 193 193 193 195 194 193 193 195 198 198 198 198 197 196 192 187 187 187 184 178 177 184 190 195 195 191 197 196 193 204 212 212 217 220 230 239 223 197 205 213 205
189 191 193 195 196 194 191 190 192 193 193 193 192 190 186 185 184 182 184 192 192 189 190 192 194 196 196 196 197 197 197 196 196 196 195 193 189 186 186 186 183 179 180 186 188 190 189 185 189 190 188 197 200 199 206 213 224 237 230 205 211 218 211
189 190 192 194 195 193 189 190 192 193 193 193 189 184 181 183 185 184 185 191 193 190 189 191 193 195 196 196 197 197 196 193 192 193 191 189 187 187 187 187 185 182 183 187 187 188 188 186 188 188 189 191 190 190 194 203 213 217 219 221 217 211 206
190 190 191 193 194 192 189 189 190 192 193 192 186 182 182 183 185 187 187 190 193 191 189 190 192 193 193 194 194 193 191 189 189 188 186 185 186 187 188 188 186 186 188 188 188 189 187 186 188 187 188 188 180 177 177 186 204 208 219 229 219 198 200
191 190 190 192 192 191 188 187 188 192 193 188 184 184 184 184 186 189 189 192 194 190 187 188 189 190 190 190 190 188 186 184 183 183 183 184 185 186 188 188 187 187 188 189 189 189 186 184 185 181 176 178 167 160 173 196 218 219 222 225 217 206 202
191 188 189 191 192 190 186 185 187 191 190 185 185 187 185 183 187 189 191 194 193 187 184 186 188 188 189 188 186 185 184 181 180 179 180 181 183 185 186 188 190 189 188 190 190 189 187 180 176 176 168 164 162 162 195 231 223 215 217 220 221 216 204
189 186 187 190 192 191 186 183 185 190 189 184 184 187 185 184 186 187 189 190 186 183 183 186 187 187 186 185 184 184 183 181 179 178 177 180 183 186 186 187 190 189 188 192 192 189 186 178 170 171 167 156 155 169 222 238 226 216 214 216 217 213 211
187 185 186 188 191 191 187 182 183 188 189 184 181 183 183 183 185 186 186 184 181 182 183 186 194 194 189 184 182 182 182 180 180 179 177 181 184 186 187 186 188 192 194 196 198 195 192 188 179 173 168 160 159 184 224 230 225 221 219 221 220 217 224
185 185 185 187 188 189 188 183 181 186 187 182 179 181 181 182 184 186 185 182 184 189 189 193 204 204 198 191 184 180 180 179 180 181 180 181 184 184 184 182 184 194 197 196 197 197 197 199 196 193 194 191 184 192 210 222 223 222 226 231 227 221 231
183 184 184 185 186 187 187 183 179 183 185 179 175 178 181 182 182 185 185 184 190 195 196 202 210 208 201 197 187 179 180 179 179 181 182 183 183 181 180 179 181 188 190 188 190 193 196 200 201 204 214 222 213 206 207 208 213 220 231 235 229 224 239
182 182 183 184 184 185 186 183 180 182 183 177 173 177 181 180 181 184 185 186 192 197 200 208 212 205 199 198 191 182 181 181 180 182 182 182 182 180 178 178 178 179 184 186 185 186 192 197 204 213 222 232 236 231 218 209 207 210 218 232 233 231 241
183 181 182 182 181 182 186 185 182 180 179 174 171 176 180 181 185 189 188 187 192 197 202 210 211 202 198 198 193 187 182 181 181 181 181 181 181 181 180 180 180 178 181 185 183 180 183 188 198 211 218 224 234 239 232 221 214 211 211 212 217 232 245
183 181 179 178 178 180 183 185 183 178 175 174 174 178 183 186 193 197 196 193 192 194 203 210 207 199 198 197 192 188 182 180 181 179 180 182 182 182 183 184 184 181 178 181 184 182 179 181 187 193 201 211 220 226 227 225 217 210 210 209 208 223 244
180 179 176 176 177 178 180 186 185 177 173 178 183 186 188 192 198 201 199 196 192 192 203 208 203 198 199 196 190 188 184 181 180 179 180 183 184 185 187 186 185 183 178 181 191 192 185 182 186 190 199 211 215 211 211 219 219 212 210 212 210 213 224
176 174 172 174 177 176 179 185 185 177 175 179 186 190 188 188 195 198 197 195 190 188 199 203 199 198 198 193 188 187 186 182 180 180 181 183 184 186 188 187 185 183 181 186 200 204 194 188 191 197 207 212 211 206 203 215 225 220 217 222 224 227 234
173 170 170 173 173 171 174 180 180 177 177 180 187 191 185 179 186 192 195 197 194 192 198 200 198 198 198 192 187 186 185 182 180 180 180 181 184 186 189 190 188 184 186 193 202 206 199 195 197 204 212 211 209 209 203 202 215 220 223 231 237 243 247
170 167 170 174 171 169 172 177 178 177 178 182 186 185 179 178 185 191 195 199 199 198 200 199 197 198 197 192 188 186 186 183 179 179 179 178 183 186 188 193 192 187 190 198 202 202 199 198 199 207 214 212 211 214 206 198 203 213 221 231 239 244 247
167 165 170 173 170 169 170 172 174 175 177 180 180 177 177 181 184 189 195 200 201 199 200 201 199 197 196 193 189 186 188 186 179 178 179 178 181 185 185 191 196 196 198 201 201 200 199 198 200 208 214 214 217 215 203 198 205 211 219 231 238 238 237
169 169 170 170 169 171 170 173 179 180 179 180 179 178 180 178 175 183 193 200 200 197 200 204 201 196 196 195 190 186 187 189 181 177 179 179 182 186 184 186 196 201 204 205 204 201 202 202 204 209 214 217 219 211 196 194 207 216 226 237 240 239 237
175 174 172 172 173 172 171 178 185 185 182 181 180 182 183 178 177 186 191 195 196 195 202 207 202 196 196 197 192 186 185 187 183 177 180 183 184 187 187 185 194 201 203 205 206 204 205 207 208 212 218 222 222 216 206 201 208 216 224 229 232 236 236
176 175 174 176 175 169 167 176 181 181 180 179 176 179 183 182 183 186 187 189 189 190 200 206 203 198 197 197 194 189 183 181 183 179 181 186 185 186 187 185 192 199 199 202 206 207 208 211 213 217 223 226 229 225 217 214 217 218 221 226 232 238 238
175 175 174 175 174 169 168 173 176 179 182 180 175 176 180 180 180 181 182 184 183 183 195 202 202 201 198 196 195 192 185 183 184 181 181 187 186 183 182 182 189 194 193 197 204 207 210 213 217 223 227 226 227 223 218 220 223 223 227 233 237 241 243